QPF
0.00 0.00 0.00 0.00 0.00 0.00 0.01 0.01 0.01 0.00 0.00 0.00 0.01 0.01 0.01 0.01 0.01 0.01 0.01 0.01 0.02 0.05 0.02 0.01 0.01 0.02 0.02 0.03 0.09 0.19 0.08 0.03 0.02 0.02 0.01 0.02 0.02 0.02 0.03 0.04 0.06 0.08 0.07 0.06
0.00 0.00 0.00 0.00 0.00 0.00 0.00 0.01 0.00 0.00 0.01 0.01 0.01 0.01 0.01 0.01 0.02 0.03 0.03 0.03 0.04 0.06 0.02 0.01 0.01 0.01 0.02 0.02 0.03 0.06 0.04 0.03 0.03 0.02 0.01 0.01 0.01 0.02 0.03 0.04 0.06 0.06 0.06 0.06
0.00 0.00 0.00 0.00 0.00 0.00 0.00 0.00 0.01 0.01 0.01 0.01 0.01 0.02 0.02 0.02 0.02 0.03 0.04 0.05 0.05 0.03 0.01 0.01 0.00 0.00 0.01 0.01 0.02 0.02 0.02 0.03 0.03 0.02 0.02 0.01 0.01 0.01 0.02 0.03 0.05 0.05 0.07 0.07
0.00 0.00 0.00 0.00 0.00 0.00 0.00 0.00 0.00 0.01 0.01 0.01 0.02 0.02 0.02 0.03 0.03 0.04 0.05 0.03 0.02 0.01 0.01 0.01 0.01 0.01 0.01 0.01 0.01 0.01 0.01 0.01 0.02 0.02 0.02 0.02 0.02 0.02 0.02 0.04 0.05 0.07 0.08 0.07
0.00 0.00 0.00 0.00 0.00 0.00 0.00 0.00 0.00 0.00 0.01 0.01 0.02 0.01 0.02 0.03 0.03 0.04 0.03 0.02 0.02 0.02 0.01 0.02 0.02 0.02 0.01 0.00 0.01 0.01 0.01 0.01 0.02 0.02 0.02 0.02 0.02 0.02 0.03 0.04 0.04 0.06 0.07 0.09
0.00 0.00 0.00 0.00 0.00 0.00 0.00 0.00 0.00 0.01 0.00 0.00 0.01 0.01 0.01 0.01 0.01 0.02 0.01 0.01 0.01 0.03 0.03 0.02 0.02 0.02 0.01 0.00 0.01 0.01 0.01 0.01 0.02 0.02 0.03 0.04 0.04 0.03 0.03 0.03 0.04 0.06 0.07 0.09
0.00 0.00 0.00 0.00 0.00 0.00 0.00 0.00 0.00 0.00 0.00 0.00 0.00 0.00 0.00 0.00 0.01 0.01 0.01 0.01 0.02 0.03 0.03 0.02 0.01 0.01 0.01 0.01 0.01 0.02 0.02 0.02 0.01 0.02 0.03 0.04 0.04 0.03 0.03 0.03 0.03 0.04 0.03 0.03
0.00 0.00 0.00 0.00 0.00 0.00 0.00 0.00 0.00 0.00 0.01 0.01 0.00 0.01 0.01 0.01 0.01 0.02 0.02 0.02 0.03 0.04 0.02 0.02 0.02 0.02 0.01 0.01 0.02 0.02 0.02 0.02 0.02 0.01 0.02 0.02 0.03 0.03 0.03 0.02 0.02 0.03 0.02 0.02
0.00 0.00 0.00 0.00 0.00 0.00 0.00 0.00 0.00 0.00 0.00 0.00 0.01 0.01 0.01 0.04 0.06 0.08 0.09 0.05 0.03 0.04 0.03 0.02 0.02 0.01 0.01 0.02 0.02 0.02 0.01 0.02 0.02 0.01 0.01 0.02 0.03 0.03 0.03 0.03 0.03 0.03 0.03 0.04
0.00 0.00 0.00 0.00 0.00 0.00 0.00 0.00 0.00 0.00 0.00 0.00 0.01 0.01 0.01 0.08 0.07 0.03 0.04 0.03 0.02 0.04 0.05 0.02 0.01 0.01 0.02 0.02 0.02 0.02 0.02 0.02 0.01 0.01 0.02 0.03 0.04 0.05 0.04 0.03 0.02 0.03 0.03 0.05
0.00 0.00 0.00 0.00 0.00 0.00 0.00 0.00 0.00 0.00 0.00 0.00 0.01 0.01 0.00 0.02 0.02 0.02 0.02 0.02 0.02 0.02 0.04 0.04 0.02 0.01 0.02 0.02 0.02 0.01 0.02 0.01 0.01 0.03 0.05 0.06 0.07 0.07 0.07 0.06 0.04 0.04 0.03 0.04
0.00 0.00 0.00 0.00 0.00 0.00 0.00 0.00 0.00 0.00 0.00 0.00 0.00 0.01 0.00 0.00 0.01 0.02 0.02 0.02 0.02 0.02 0.03 0.03 0.01 0.01 0.02 0.01 0.01 0.01 0.01 0.01 0.01 0.04 0.08 0.09 0.09 0.07 0.07 0.07 0.08 0.07 0.05 0.06
0.00 0.00 0.00 0.00 0.00 0.00 0.00 0.00 0.00 0.00 0.00 0.00 0.00 0.01 0.01 0.01 0.01 0.02 0.02 0.02 0.03 0.04 0.02 0.02 0.01 0.01 0.01 0.01 0.01 0.01 0.00 0.00 0.01 0.02 0.03 0.06 0.06 0.04 0.04 0.05 0.07 0.07 0.06 0.07
0.00 0.00 0.00 0.00 0.00 0.00 0.00 0.00 0.00 0.00 0.00 0.00 0.00 0.00 0.01 0.01 0.04 0.03 0.02 0.02 0.03 0.03 0.03 0.03 0.03 0.01 0.01 0.01 0.00 0.00 0.01 0.01 0.01 0.01 0.01 0.02 0.02 0.01 0.02 0.04 0.05 0.07 0.06 0.04
0.00 0.00 0.00 0.00 0.00 0.00 0.00 0.00 0.00 0.00 0.00 0.00 0.00 0.00 0.00 0.01 0.03 0.07 0.03 0.02 0.03 0.04 0.03 0.03 0.02 0.02 0.01 0.01 0.01 0.01 0.00 0.01 0.01 0.02 0.02 0.02 0.01 0.01 0.02 0.03 0.03 0.04 0.04 0.04
0.00 0.00 0.00 0.00 0.00 0.00 0.00 0.00 0.00 0.00 0.00 0.00 0.00 0.00 0.00 0.01 0.01 0.07 0.05 0.01 0.02 0.03 0.02 0.02 0.02 0.02 0.02 0.02 0.02 0.01 0.01 0.01 0.01 0.02 0.03 0.02 0.02 0.01 0.01 0.02 0.02 0.03 0.03 0.04
0.00 0.00 0.00 0.00 0.00 0.00 0.00 0.00 0.00 0.00 0.00 0.00 0.00 0.00 0.00 0.02 0.01 0.03 0.06 0.02 0.01 0.01 0.02 0.02 0.03 0.05 0.04 0.03 0.03 0.03 0.03 0.03 0.01 0.01 0.01 0.01 0.03 0.04 0.04 0.03 0.03 0.04 0.04 0.04
0.00 0.00 0.00 0.00 0.00 0.00 0.00 0.00 0.00 0.00 0.00 0.00 0.00 0.01 0.01 0.02 0.01 0.01 0.02 0.01 0.01 0.04 0.04 0.03 0.03 0.05 0.06 0.06 0.06 0.06 0.06 0.04 0.02 0.01 0.00 0.00 0.02 0.03 0.03 0.03 0.03 0.04 0.05 0.05
0.00 0.01 0.01 0.01 0.00 0.00 0.00 0.01 0.01 0.01 0.01 0.01 0.01 0.01 0.01 0.02 0.02 0.04 0.03 0.02 0.02 0.02 0.03 0.03 0.04 0.07 0.06 0.08 0.09 0.08 0.09 0.07 0.03 0.01 0.00 0.01 0.02 0.03 0.03 0.05 0.04 0.05 0.07 0.06
0.00 0.01 0.01 0.01 0.01 0.00 0.00 0.01 0.01 0.01 0.01 0.01 0.01 0.01 0.01 0.01 0.03 0.03 0.02 0.01 0.01 0.01 0.02 0.04 0.04 0.07 0.10 0.08 0.11 0.11 0.10 0.09 0.07 0.03 0.02 0.02 0.02 0.03 0.04 0.05 0.04 0.05 0.06 0.06
0.01 0.01 0.01 0.01 0.01 0.00 0.01 0.02 0.02 0.02 0.03 0.02 0.02 0.02 0.01 0.01 0.02 0.01 0.01 0.01 0.01 0.01 0.02 0.04 0.04 0.04 0.06 0.09 0.12 0.15 0.13 0.11 0.09 0.06 0.04 0.03 0.03 0.03 0.03 0.04 0.04 0.05 0.06 0.06
0.02 0.02 0.02 0.02 0.01 0.01 0.02 0.02 0.03 0.02 0.03 0.03 0.03 0.02 0.02 0.02 0.02 0.02 0.02 0.02 0.02 0.03 0.05 0.06 0.05 0.04 0.05 0.08 0.11 0.13 0.12 0.09 0.09 0.07 0.05 0.04 0.04 0.04 0.05 0.05 0.05 0.06 0.07 0.07
0.03 0.03 0.02 0.02 0.02 0.03 0.03 0.04 0.06 0.06 0.04 0.05 0.10 0.07 0.06 0.04 0.03 0.04 0.04 0.03 0.03 0.04 0.05 0.06 0.06 0.07 0.09 0.09 0.11 0.13 0.12 0.09 0.08 0.08 0.06 0.04 0.04 0.04 0.05 0.04 0.04 0.04 0.04 0.03
0.03 0.04 0.03 0.03 0.04 0.04 0.08 0.10 0.09 0.11 0.11 0.09 0.14 0.18 0.17 0.08 0.04 0.06 0.07 0.05 0.06 0.07 0.06 0.07 0.07 0.08 0.08 0.07 0.11 0.14 0.15 0.13 0.08 0.07 0.05 0.04 0.04 0.04 0.04 0.04 0.05 0.04 0.03 0.03
0.04 0.04 0.04 0.06 0.06 0.05 0.10 0.19 0.18 0.13 0.16 0.15 0.16 0.22 0.19 0.08 0.05 0.05 0.07 0.06 0.06 0.09 0.09 0.09 0.07 0.06 0.06 0.07 0.10 0.12 0.14 0.13 0.08 0.05 0.04 0.04 0.04 0.04 0.03 0.03 0.03 0.02 0.02 0.03
0.07 0.07 0.09 0.09 0.07 0.08 0.08 0.08 0.15 0.20 0.20 0.17 0.14 0.14 0.14 0.10 0.08 0.10 0.08 0.05 0.06 0.12 0.13 0.14 0.09 0.07 0.07 0.08 0.12 0.13 0.11 0.10 0.08 0.05 0.03 0.02 0.02 0.01 0.01 0.01 0.01 0.01 0.01 0.03
MSLP
1010.92 1011.76 1012.40 1012.83 1013.07 1013.18 1013.23 1013.28 1013.37 1013.50 1013.64 1013.75 1013.80 1013.75 1013.62 1013.40 1013.14 1012.90 1012.72 1012.62 1012.61 1012.67 1012.77 1012.87 1012.94 1012.97 1012.96 1012.95 1012.97 1013.05 1013.22 1013.49 1013.82 1014.19 1014.53 1014.80 1014.97 1015.01 1014.95 1014.81 1014.64 1014.49 1014.41 1014.40
1011.66 1012.26 1012.65 1012.86 1012.95 1012.99 1013.06 1013.19 1013.40 1013.65 1013.89 1014.05 1014.09 1013.97 1013.71 1013.34 1012.95 1012.60 1012.36 1012.24 1012.26 1012.38 1012.54 1012.69 1012.80 1012.83 1012.80 1012.75 1012.73 1012.79 1012.96 1013.26 1013.66 1014.11 1014.54 1014.89 1015.10 1015.16 1015.07 1014.88 1014.65 1014.44 1014.30 1014.27
1012.12 1012.44 1012.55 1012.54 1012.50 1012.52 1012.65 1012.94 1013.34 1013.78 1014.17 1014.41 1014.44 1014.24 1013.84 1013.29 1012.71 1012.20 1011.83 1011.66 1011.67 1011.82 1012.05 1012.28 1012.44 1012.51 1012.50 1012.45 1012.42 1012.47 1012.66 1013.00 1013.45 1013.97 1014.47 1014.88 1015.15 1015.24 1015.15 1014.94 1014.67 1014.41 1014.24 1014.19
1012.28 1012.31 1012.17 1011.99 1011.87 1011.92 1012.20 1012.70 1013.35 1014.03 1014.60 1014.93 1014.96 1014.66 1014.06 1013.28 1012.45 1011.71 1011.16 1010.86 1010.82 1010.98 1011.27 1011.58 1011.83 1011.98 1012.02 1012.01 1012.01 1012.08 1012.28 1012.64 1013.13 1013.70 1014.27 1014.74 1015.06 1015.19 1015.13 1014.92 1014.65 1014.38 1014.18 1014.11
1012.19 1011.98 1011.64 1011.34 1011.22 1011.38 1011.87 1012.63 1013.57 1014.50 1015.26 1015.68 1015.68 1015.24 1014.42 1013.35 1012.21 1011.18 1010.39 1009.91 1009.77 1009.91 1010.23 1010.62 1010.98 1011.23 1011.37 1011.43 1011.48 1011.58 1011.81 1012.18 1012.70 1013.30 1013.91 1014.44 1014.82 1015.00 1014.99 1014.82 1014.56 1014.30 1014.09 1014.00
1011.95 1011.55 1011.10 1010.77 1010.73 1011.06 1011.79 1012.84 1014.06 1015.24 1016.16 1016.64 1016.58 1015.97 1014.89 1013.51 1012.03 1010.66 1009.59 1008.90 1008.63 1008.71 1009.05 1009.51 1009.97 1010.34 1010.59 1010.74 1010.85 1011.00 1011.24 1011.63 1012.15 1012.77 1013.40 1013.98 1014.41 1014.66 1014.71 1014.60 1014.39 1014.14 1013.93 1013.82
1011.61 1011.12 1010.65 1010.38 1010.47 1011.01 1012.00 1013.33 1014.80 1016.18 1017.21 1017.70 1017.56 1016.76 1015.41 1013.70 1011.89 1010.20 1008.84 1007.93 1007.51 1007.52 1007.85 1008.37 1008.92 1009.40 1009.76 1010.00 1010.18 1010.36 1010.62 1011.00 1011.51 1012.13 1012.78 1013.39 1013.88 1014.20 1014.33 1014.28 1014.12 1013.90 1013.70 1013.56
1011.26 1010.77 1010.36 1010.21 1010.48 1011.24 1012.45 1014.00 1015.65 1017.15 1018.23 1018.69 1018.43 1017.45 1015.86 1013.88 1011.77 1009.81 1008.20 1007.10 1006.53 1006.47 1006.79 1007.34 1007.95 1008.52 1008.97 1009.29 1009.52 1009.73 1009.99 1010.36 1010.85 1011.45 1012.10 1012.74 1013.28 1013.66 1013.86 1013.89 1013.79 1013.60 1013.40 1013.23
1010.91 1010.50 1010.21 1010.23 1010.68 1011.63 1013.01 1014.69 1016.42 1017.95 1019.00 1019.38 1019.00 1017.86 1016.10 1013.92 1011.63 1009.48 1007.72 1006.48 1005.81 1005.68 1005.98 1006.53 1007.18 1007.80 1008.31 1008.68 1008.94 1009.16 1009.42 1009.76 1010.23 1010.81 1011.45 1012.09 1012.67 1013.11 1013.38 1013.48 1013.43 1013.28 1013.08 1012.88
1010.55 1010.29 1010.18 1010.37 1010.99 1012.05 1013.51 1015.21 1016.91 1018.36 1019.32 1019.59 1019.10 1017.86 1016.01 1013.77 1011.41 1009.21 1007.39 1006.10 1005.39 1005.22 1005.48 1006.03 1006.68 1007.31 1007.83 1008.22 1008.49 1008.72 1008.96 1009.28 1009.71 1010.26 1010.89 1011.54 1012.14 1012.62 1012.94 1013.10 1013.09 1012.97 1012.77 1012.56
1010.17 1010.10 1010.18 1010.54 1011.27 1012.37 1013.80 1015.40 1016.96 1018.25 1019.04 1019.19 1018.61 1017.35 1015.53 1013.35 1011.08 1008.97 1007.22 1005.98 1005.28 1005.10 1005.34 1005.84 1006.46 1007.06 1007.56 1007.94 1008.21 1008.42 1008.65 1008.95 1009.36 1009.89 1010.50 1011.14 1011.74 1012.25 1012.61 1012.80 1012.83 1012.73 1012.54 1012.32
1009.76 1009.91 1010.18 1010.67 1011.45 1012.52 1013.82 1015.22 1016.54 1017.59 1018.18 1018.20 1017.58 1016.37 1014.68 1012.69 1010.64 1008.75 1007.18 1006.07 1005.45 1005.28 1005.48 1005.93 1006.47 1007.01 1007.47 1007.82 1008.07 1008.28 1008.51 1008.80 1009.20 1009.71 1010.30 1010.93 1011.53 1012.04 1012.42 1012.63 1012.69 1012.61 1012.44 1012.22
1009.34 1009.70 1010.15 1010.74 1011.52 1012.47 1013.56 1014.69 1015.70 1016.47 1016.84 1016.74 1016.12 1015.03 1013.56 1011.87 1010.14 1008.56 1007.25 1006.33 1005.81 1005.67 1005.84 1006.20 1006.66 1007.11 1007.50 1007.80 1008.05 1008.26 1008.51 1008.82 1009.23 1009.73 1010.32 1010.92 1011.51 1012.01 1012.39 1012.61 1012.69 1012.63 1012.49 1012.29
1008.95 1009.52 1010.12 1010.77 1011.49 1012.29 1013.12 1013.92 1014.59 1015.06 1015.22 1015.01 1014.43 1013.51 1012.33 1010.99 1009.64 1008.42 1007.42 1006.70 1006.30 1006.19 1006.31 1006.58 1006.92 1007.26 1007.58 1007.85 1008.09 1008.33 1008.61 1008.96 1009.40 1009.92 1010.50 1011.10 1011.66 1012.14 1012.51 1012.74 1012.83 1012.81 1012.70 1012.56
1008.67 1009.42 1010.13 1010.80 1011.43 1012.03 1012.58 1013.04 1013.39 1013.56 1013.52 1013.24 1012.73 1012.01 1011.13 1010.17 1009.22 1008.36 1007.65 1007.15 1006.85 1006.75 1006.80 1006.95 1007.17 1007.41 1007.64 1007.88 1008.13 1008.42 1008.76 1009.18 1009.67 1010.22 1010.81 1011.40 1011.94 1012.40 1012.75 1012.98 1013.10 1013.12 1013.07 1013.00
1008.57 1009.45 1010.23 1010.88 1011.39 1011.78 1012.05 1012.19 1012.23 1012.14 1011.94 1011.62 1011.19 1010.68 1010.10 1009.50 1008.92 1008.39 1007.95 1007.62 1007.40 1007.27 1007.24 1007.27 1007.35 1007.48 1007.65 1007.86 1008.14 1008.48 1008.90 1009.40 1009.97 1010.57 1011.18 1011.76 1012.29 1012.73 1013.07 1013.32 1013.46 1013.54 1013.56 1013.57
1008.71 1009.66 1010.44 1011.02 1011.40 1011.58 1011.58 1011.45 1011.22 1010.93 1010.60 1010.27 1009.94 1009.62 1009.31 1009.03 1008.77 1008.52 1008.29 1008.08 1007.89 1007.72 1007.59 1007.49 1007.44 1007.46 1007.57 1007.77 1008.07 1008.48 1008.99 1009.58 1010.22 1010.88 1011.52 1012.12 1012.64 1013.08 1013.42 1013.69 1013.88 1014.01 1014.13 1014.23
1009.10 1010.02 1010.75 1011.22 1011.43 1011.40 1011.18 1010.81 1010.38 1009.94 1009.55 1009.23 1009.00 1008.86 1008.79 1008.77 1008.75 1008.72 1008.64 1008.50 1008.31 1008.08 1007.83 1007.61 1007.43 1007.36 1007.41 1007.60 1007.93 1008.41 1009.00 1009.68 1010.40 1011.11 1011.79 1012.41 1012.94 1013.39 1013.75 1014.05 1014.29 1014.51 1014.71 1014.91
1009.68 1010.51 1011.10 1011.41 1011.44 1011.22 1010.80 1010.26 1009.69 1009.16 1008.74 1008.46 1008.34 1008.36 1008.48 1008.66 1008.83 1008.94 1008.96 1008.86 1008.65 1008.35 1007.99 1007.65 1007.37 1007.21 1007.21 1007.39 1007.75 1008.27 1008.93 1009.68 1010.46 1011.23 1011.95 1012.60 1013.16 1013.63 1014.02 1014.37 1014.68 1014.97 1015.26 1015.56
1010.35 1011.01 1011.41 1011.53 1011.37 1010.97 1010.40 1009.74 1009.08 1008.52 1008.11 1007.90 1007.89 1008.04 1008.32 1008.65 1008.95 1009.17 1009.24 1009.16 1008.91 1008.55 1008.11 1007.67 1007.31 1007.08 1007.03 1007.19 1007.56 1008.11 1008.81 1009.60 1010.43 1011.24 1012.00 1012.68 1013.27 1013.79 1014.23 1014.64 1015.01 1015.38 1015.76 1016.13
1011.01 1011.44 1011.61 1011.52 1011.18 1010.62 1009.94 1009.21 1008.52 1007.97 1007.62 1007.49 1007.57 1007.85 1008.24 1008.68 1009.08 1009.36 1009.47 1009.39 1009.13 1008.72 1008.23 1007.72 1007.30 1007.02 1006.93 1007.06 1007.41 1007.97 1008.68 1009.49 1010.34 1011.18 1011.97 1012.68 1013.32 1013.88 1014.39 1014.86 1015.31 1015.75 1016.18 1016.61
1011.54 1011.71 1011.65 1011.36 1010.85 1010.19 1009.43 1008.68 1008.01 1007.52 1007.23 1007.19 1007.37 1007.74 1008.22 1008.74 1009.19 1009.52 1009.66 1009.59 1009.32 1008.90 1008.38 1007.85 1007.39 1007.07 1006.95 1007.05 1007.38 1007.90 1008.60 1009.39 1010.24 1011.09 1011.90 1012.65 1013.33 1013.95 1014.52 1015.05 1015.56 1016.06 1016.54 1017.01
1011.84 1011.79 1011.53 1011.06 1010.44 1009.71 1008.93 1008.21 1007.60 1007.18 1006.99 1007.03 1007.29 1007.73 1008.27 1008.82 1009.31 1009.66 1009.82 1009.76 1009.51 1009.10 1008.59 1008.07 1007.60 1007.27 1007.12 1007.19 1007.47 1007.95 1008.60 1009.36 1010.18 1011.02 1011.84 1012.61 1013.34 1014.01 1014.64 1015.23 1015.80 1016.34 1016.85 1017.33
1011.88 1011.66 1011.25 1010.68 1010.00 1009.26 1008.53 1007.87 1007.35 1007.03 1006.92 1007.04 1007.36 1007.84 1008.40 1008.96 1009.45 1009.81 1009.98 1009.95 1009.73 1009.35 1008.88 1008.38 1007.94 1007.61 1007.45 1007.48 1007.72 1008.14 1008.73 1009.43 1010.20 1011.02 1011.83 1012.62 1013.38 1014.09 1014.77 1015.42 1016.03 1016.60 1017.12 1017.60
1011.66 1011.34 1010.86 1010.28 1009.62 1008.93 1008.29 1007.74 1007.33 1007.11 1007.09 1007.27 1007.62 1008.10 1008.65 1009.19 1009.65 1009.99 1010.16 1010.15 1009.96 1009.64 1009.22 1008.78 1008.37 1008.06 1007.90 1007.90 1008.09 1008.45 1008.96 1009.60 1010.32 1011.09 1011.88 1012.68 1013.45 1014.21 1014.93 1015.61 1016.25 1016.84 1017.36 1017.83
1011.22 1010.88 1010.43 1009.89 1009.33 1008.76 1008.25 1007.84 1007.57 1007.45 1007.51 1007.72 1008.08 1008.53 1009.02 1009.51 1009.92 1010.22 1010.38 1010.38 1010.23 1009.95 1009.60 1009.22 1008.86 1008.59 1008.43 1008.41 1008.55 1008.85 1009.29 1009.85 1010.51 1011.23 1011.99 1012.78 1013.56 1014.33 1015.08 1015.79 1016.45 1017.05 1017.57 1018.02
Thickness
5837 5819 5809 5817 5825 5825 5822 5815 5810 5820 5839 5829 5817 5815 5821 5827 5825 5821 5818 5816 5814 5813 5817 5817 5814 5812 5807 5803 5798 5794 5792 5789 5787 5783 5779 5776 5773 5774 5773 5772 5770 5769 5768 5767
5810 5807 5826 5834 5835 5831 5823 5813 5812 5824 5839 5829 5815 5814 5823 5827 5828 5827 5823 5820 5818 5815 5814 5815 5814 5812 5808 5804 5801 5797 5794 5792 5790 5786 5783 5779 5777 5775 5774 5773 5771 5770 5769 5767
5800 5816 5835 5831 5826 5822 5819 5814 5815 5817 5827 5827 5814 5801 5808 5821 5828 5829 5828 5826 5824 5821 5818 5817 5815 5813 5810 5807 5804 5802 5798 5795 5793 5789 5785 5781 5777 5774 5772 5770 5770 5769 5768 5767
5806 5825 5829 5823 5821 5823 5810 5832 5831 5824 5806 5793 5804 5772 5794 5808 5814 5821 5824 5825 5824 5824 5823 5820 5818 5815 5813 5812 5810 5806 5802 5798 5795 5791 5786 5780 5774 5770 5770 5770 5769 5769 5768 5767
5801 5821 5821 5817 5826 5831 5825 5841 5834 5825 5805 5790 5795 5777 5784 5803 5803 5814 5824 5828 5828 5828 5826 5824 5823 5820 5818 5816 5812 5808 5804 5799 5796 5793 5788 5782 5777 5774 5773 5771 5769 5767 5767 5765
5807 5825 5828 5829 5839 5841 5839 5828 5817 5803 5788 5769 5787 5778 5775 5796 5811 5820 5827 5831 5831 5830 5830 5828 5826 5823 5820 5817 5813 5809 5804 5800 5797 5793 5789 5784 5779 5775 5771 5769 5766 5764 5764 5763
5791 5809 5826 5836 5824 5828 5822 5790 5764 5761 5750 5758 5786 5784 5785 5817 5830 5831 5830 5832 5835 5833 5830 5827 5824 5821 5818 5816 5813 5809 5804 5799 5797 5794 5789 5785 5781 5777 5772 5769 5766 5763 5761 5760
5765 5772 5809 5826 5819 5809 5809 5790 5758 5746 5745 5757 5782 5779 5801 5832 5840 5841 5839 5837 5837 5834 5832 5830 5827 5824 5822 5818 5814 5810 5805 5800 5797 5793 5789 5786 5782 5778 5774 5770 5767 5764 5762 5761
5759 5768 5811 5826 5832 5822 5804 5790 5791 5766 5761 5754 5765 5786 5810 5831 5832 5833 5832 5832 5832 5833 5833 5831 5829 5827 5824 5820 5816 5812 5807 5801 5797 5793 5789 5785 5781 5777 5774 5770 5767 5765 5763 5761
5774 5767 5794 5816 5825 5822 5815 5803 5774 5758 5743 5740 5759 5772 5782 5807 5817 5824 5825 5827 5830 5832 5832 5831 5829 5827 5825 5822 5817 5813 5808 5802 5797 5793 5789 5785 5781 5777 5774 5770 5766 5763 5762 5760
5776 5761 5773 5791 5792 5792 5800 5794 5775 5757 5755 5740 5739 5763 5810 5814 5821 5823 5826 5829 5829 5830 5828 5828 5828 5827 5825 5821 5816 5811 5806 5800 5795 5791 5787 5783 5779 5775 5772 5768 5765 5762 5761 5759
5770 5752 5748 5770 5798 5811 5803 5793 5775 5756 5752 5749 5746 5765 5824 5825 5827 5827 5828 5830 5830 5829 5829 5827 5826 5824 5820 5816 5812 5807 5803 5798 5794 5790 5785 5781 5776 5772 5769 5765 5763 5761 5758 5757
5766 5744 5732 5744 5766 5789 5793 5795 5784 5769 5755 5744 5744 5769 5819 5822 5822 5826 5827 5828 5826 5824 5824 5822 5820 5817 5815 5812 5809 5805 5801 5796 5792 5787 5782 5777 5773 5769 5765 5763 5760 5758 5755 5753
5770 5741 5733 5731 5745 5767 5776 5788 5788 5769 5750 5749 5759 5775 5799 5809 5811 5816 5820 5822 5821 5820 5819 5816 5815 5813 5811 5809 5806 5802 5798 5794 5789 5784 5779 5774 5769 5766 5762 5759 5756 5753 5751 5748
5756 5739 5747 5754 5768 5776 5777 5782 5785 5776 5768 5762 5770 5780 5796 5807 5812 5815 5818 5816 5814 5812 5812 5811 5810 5809 5806 5803 5801 5798 5794 5790 5786 5780 5775 5770 5766 5763 5759 5755 5752 5749 5746 5743
5740 5734 5741 5748 5765 5770 5770 5779 5783 5782 5782 5779 5781 5784 5806 5812 5815 5813 5813 5812 5807 5807 5809 5808 5807 5805 5804 5801 5797 5794 5789 5786 5782 5776 5771 5767 5762 5758 5754 5750 5747 5744 5740 5736
5725 5725 5720 5723 5746 5754 5747 5771 5778 5780 5788 5785 5776 5788 5803 5803 5806 5808 5810 5809 5808 5808 5808 5805 5803 5802 5800 5798 5795 5790 5785 5781 5776 5772 5767 5762 5758 5753 5749 5746 5742 5738 5734 5730
5721 5713 5706 5711 5726 5717 5748 5782 5788 5784 5788 5793 5794 5799 5803 5806 5809 5812 5814 5810 5806 5806 5805 5803 5800 5798 5796 5794 5790 5786 5781 5775 5770 5766 5762 5757 5753 5748 5744 5740 5735 5731 5727 5723
5725 5712 5701 5698 5703 5719 5752 5777 5782 5774 5773 5792 5793 5797 5799 5803 5800 5799 5808 5811 5809 5808 5806 5803 5801 5797 5794 5789 5785 5780 5774 5769 5764 5760 5756 5753 5748 5743 5738 5734 5729 5725 5720 5716
5718 5712 5700 5695 5699 5704 5740 5776 5790 5779 5760 5787 5793 5791 5792 5793 5775 5782 5801 5804 5804 5804 5802 5798 5796 5793 5789 5784 5780 5774 5767 5762 5757 5755 5752 5748 5744 5739 5733 5728 5724 5720 5715 5709
5696 5695 5692 5691 5696 5713 5753 5775 5780 5747 5753 5784 5789 5789 5788 5785 5787 5794 5798 5798 5798 5796 5794 5792 5789 5786 5782 5779 5774 5766 5761 5755 5752 5750 5747 5742 5738 5733 5728 5723 5719 5714 5708 5703
5685 5683 5684 5686 5689 5705 5753 5763 5755 5756 5776 5782 5785 5788 5786 5786 5788 5790 5790 5790 5790 5787 5785 5784 5780 5775 5773 5772 5766 5759 5753 5751 5747 5743 5739 5734 5730 5728 5722 5717 5712 5708 5703 5697
5684 5689 5691 5695 5704 5728 5744 5752 5761 5767 5769 5774 5779 5783 5784 5781 5780 5781 5780 5780 5780 5779 5777 5775 5771 5766 5763 5762 5760 5753 5747 5744 5739 5734 5731 5726 5723 5719 5714 5710 5705 5700 5695 5690
5684 5693 5693 5697 5712 5726 5738 5747 5755 5761 5764 5770 5775 5778 5778 5774 5773 5772 5772 5771 5770 5770 5768 5766 5763 5758 5754 5753 5751 5747 5743 5738 5731 5726 5723 5719 5715 5709 5704 5701 5697 5693 5688 5683
5675 5683 5685 5691 5706 5718 5729 5736 5743 5751 5756 5761 5765 5768 5769 5769 5765 5764 5763 5762 5762 5761 5759 5757 5753 5749 5745 5744 5742 5739 5737 5731 5725 5720 5716 5711 5705 5700 5695 5691 5688 5685 5682 5680
5671 5674 5677 5682 5698 5703 5714 5728 5736 5739 5743 5748 5754 5755 5758 5760 5758 5756 5754 5755 5754 5751 5749 5746 5744 5741 5738 5735 5733 5730 5729 5725 5720 5713 5708 5703 5698 5692 5688 5683 5677 5675 5673 5671